| time (UTC) | temp C | wind direction | speed KPH | gust KPH | rain 1hr cm | rain 24hr cm | rain mn cm | humidity % | barometer mb |
| 20260503232017 | 13 | 0.0 | 1.6 | 0.00 | 0.00 | 0.00 | 100 | 1035.8 | |
| 20260503231017 | 13 | 0.0 | 0.0 | 0.00 | 0.00 | 0.00 | 100 | 1035.8 | |
| 20260503230017 | 12 | 0.0 | 0.0 | 0.00 | 0.00 | 0.00 | 100 | 1035.8 | |
| 20260503225038 | 12 | 0.0 | 1.6 | 0.00 | 0.00 | 0.00 | 100 | 1035.8 | |
| 20260503224017 | 12 | 0.0 | 0.0 | 0.00 | 0.00 | 0.00 | 100 | 1035.7 | |
| 20260503223017 | 12 | 0.0 | 0.0 | 0.00 | 0.00 | 0.00 | 100 | 1035.7 | |
| 20260503222017 | 11 | 0.0 | 0.0 | 0.00 | 0.00 | 0.00 | 100 | 1035.8 | |
| 20260503221057 | 11 | 0.0 | 0.0 | 0.00 | 0.00 | 0.00 | 100 | 1035.9 | |
| 20260503220017 | 11 | 0.0 | 0.0 | 0.00 | 0.00 | 0.00 | 100 | 1035.9 | |
| 20260503215017 | 11 | 0.0 | 0.0 | 0.00 | 0.00 | 0.00 | 100 | 1035.9 | |
| 20260503214017 | 10 | 0.0 | 0.0 | 0.00 | 0.00 | 0.00 | 100 | 1035.9 | |
| 20260503213017 | 10 | 0.0 | 0.0 | 0.00 | 0.00 | 0.00 | 100 | 1035.8 | |
| 20260503212057 | 10 | 0.0 | 0.0 | 0.00 | 0.00 | 0.00 | 100 | 1035.9 | |
| 20260503211017 | 10 | 0.0 | 0.0 | 0.00 | 0.00 | 0.00 | 100 | 1035.8 | |
| 20260503210017 | 9 | 0.0 | 0.0 | 0.00 | 0.00 | 0.00 | 100 | 1035.9 | |
| 20260503205017 | 9 | 0.0 | 0.0 | 0.00 | 0.00 | 0.00 | 100 | 1035.8 | |
| 20260503204017 | 8 | 0.0 | 0.0 | 0.00 | 0.00 | 0.00 | 100 | 1035.7 | |
| 20260503203018 | 8 | 0.0 | 1.6 | 0.00 | 0.00 | 0.00 | 100 | 1035.6 | |
| 20260503202017 | 8 | 0.0 | 0.0 | 0.00 | 0.00 | 0.00 | 100 | 1035.6 | |
| 20260503201016 | 8 | 0.0 | 0.0 | 0.00 | 0.00 | 0.00 | 100 | 1035.4 | |
| 20260503200017 | 8 | 0.0 | 1.6 | 0.00 | 0.00 | 0.00 | 100 | 1035.3 | |
| 20260503195017 | 8 | 0.0 | 0.0 | 0.00 | 0.00 | 0.00 | 100 | 1035.3 | |
| 20260503194016 | 8 | 0.0 | 1.6 | 0.00 | 0.00 | 0.00 | 100 | 1035.1 | |
| 20260503193017 | 8 | 0.0 | 1.6 | 0.00 | 0.00 | 0.00 | 100 | 1035.2 | |
| 20260503192017 | 8 | 0.0 | 1.6 | 0.00 | 0.00 | 0.00 | 100 | 1034.9 | |
| 20260503191016 | 8 | 0.0 | 0.0 | 0.00 | 0.00 | 0.00 | 100 | 1034.8 | |
| 20260503190017 | 8 | 0.0 | 0.0 | 0.00 | 0.00 | 0.00 | 100 | 1034.8 | |
| 20260503185017 | 8 | 0.0 | 0.0 | 0.00 | 0.00 | 0.00 | 100 | 1034.7 | |
| 20260503184037 | 8 | 0.0 | 0.0 | 0.00 | 0.00 | 0.00 | 100 | 1034.7 | |
| 20260503183017 | 8 | 0.0 | 0.0 | 0.00 | 0.00 | 0.00 | 100 | 1034.7 | |
| 20260503182017 | 8 | 0.0 | 1.6 | 0.00 | 0.00 | 0.00 | 100 | 1034.6 | |
| 20260503181016 | 7 | 0.0 | 0.0 | 0.00 | 0.00 | 0.00 | 100 | 1034.5 | |
| 20260503180016 | 7 | 0.0 | 0.0 | 0.00 | 0.00 | 0.00 | 100 | 1034.6 | |
| 20260503175019 | 7 | 0.0 | 1.6 | 0.00 | 0.00 | 0.00 | 100 | 1034.6 | |
| 20260503174018 | 7 | 0.0 | 0.0 | 0.00 | 0.00 | 0.00 | 100 | 1034.6 | |
| 20260503173019 | 7 | 0.0 | 0.0 | 0.00 | 0.00 | 0.00 | 100 | 1034.6 | |
| 20260503172019 | 7 | 0.0 | 0.0 | 0.00 | 0.00 | 0.00 | 100 | 1034.7 | |
| 20260503171039 | 7 | 0.0 | 0.0 | 0.00 | 0.00 | 0.00 | 100 | 1034.7 | |
| 20260503131018 | 7 | 0.0 | 0.0 | 0.00 | 0.00 | 0.00 | 100 | 1035.1 | |
| 20260503081018 | 8 | 0.0 | 0.0 | 0.00 | 0.00 | 0.00 | 100 | 1033.9 | |
| 20260503072018 | 8 | 0.0 | 0.0 | 0.00 | 0.00 | 0.00 | 100 | 1033.7 | |
| 20260503071058 | 8 | 0.0 | 0.0 | 0.00 | 0.00 | 0.00 | 100 | 1033.6 | |
| 20260503055017 | 11 | 0.0 | 0.0 | 0.00 | 0.00 | 0.00 | 100 | 1033.4 | |
| 20260503054017 | 11 | 0.0 | 0.0 | 0.00 | 0.00 | 0.00 | 100 | 1033.5 | |
| 20260503053017 | 11 | 0.0 | 0.0 | 0.00 | 0.00 | 0.00 | 100 | 1033.5 | |
| 20260503052017 | 11 | 0.0 | 0.0 | 0.00 | 0.00 | 0.00 | 100 | 1033.5 | |
| 20260503051018 | 12 | 0.0 | 0.0 | 0.00 | 0.00 | 0.00 | 100 | 1033.5 | |
| 20260503050017 | 12 | 0.0 | 1.6 | 0.00 | 0.00 | 0.00 | 100 | 1033.6 | |
| 20260503045017 | 12 | 0.0 | 0.0 | 0.00 | 0.00 | 0.00 | 100 | 1033.7 | |
| 20260503044018 | 13 | 0.0 | 1.6 | 0.00 | 0.00 | 0.00 | 100 | 1033.9 | |
| 20260503043017 | 13 | 0.0 | 1.6 | 0.00 | 0.00 | 0.00 | 100 | 1033.7 | |
| 20260503042017 | 13 | 0.0 | 3.2 | 0.00 | 0.00 | 0.00 | 100 | 1033.6 | |
| 20260503041017 | 13 | 0.0 | 4.8 | 0.00 | 0.00 | 0.00 | 100 | 1033.8 | |
| 20260503040037 | 14 | 0.0 | 3.2 | 0.00 | 0.00 | 0.00 | 100 | 1033.7 | |
| 20260503035017 | 14 | 0.0 | 4.8 | 0.00 | 0.00 | 0.00 | 100 | 1033.7 | |
| 20260503034017 | 15 | 0.0 | 4.8 | 0.00 | 0.00 | 0.00 | 100 | 1033.8 | |
| 20260503033058 | 15 | 0.0 | 3.2 | 0.00 | 0.00 | 0.00 | 100 | 1033.7 | |
| 20260503032037 | 15 | 0.0 | 3.2 | 0.00 | 0.00 | 0.00 | 100 | 1033.8 | |
| 20260503031037 | 15 | 0.0 | 3.2 | 0.00 | 0.00 | 0.00 | 100 | 1033.9 | |
| 20260503030017 | 16 | 0.0 | 3.2 | 0.00 | 0.00 | 0.00 | 100 | 1033.9 | |
| 20260503025017 | 16 | 315 | 1.6 | 3.2 | 0.00 | 0.00 | 0.00 | 100 | 1034.0 |
| 20260503024017 | 16 | 270 | 1.6 | 6.4 | 0.00 | 0.00 | 0.00 | 100 | 1033.9 |
| 20260503023017 | 16 | 270 | 1.6 | 6.4 | 0.00 | 0.00 | 0.00 | 100 | 1034.0 |
| 20260503022057 | 16 | 0.0 | 3.2 | 0.00 | 0.00 | 0.00 | 100 | 1034.1 | |
| 20260503021017 | 16 | 338 | 1.6 | 9.7 | 0.00 | 0.00 | 0.00 | 100 | 1034.2 |
| 20260503020017 | 16 | 68 | 1.6 | 4.8 | 0.00 | 0.00 | 0.00 | 100 | 1034.3 |
| 20260503015017 | 16 | 0.0 | 6.4 | 0.00 | 0.00 | 0.00 | 100 | 1034.4 | |
| 20260503014018 | 16 | 0.0 | 0.0 | 0.00 | 0.00 | 0.00 | 100 | 1034.4 | |
| 20260503013017 | 15 | 0.0 | 0.0 | 0.00 | 0.00 | 0.00 | 100 | 1034.5 | |
| 20260503012017 | 15 | 0.0 | 0.0 | 0.00 | 0.00 | 0.00 | 100 | 1034.4 | |
| 20260503011018 | 14 | 0.0 | 0.0 | 0.00 | 0.00 | 0.00 | 100 | 1034.6 | |
| 20260503010017 | 14 | 0.0 | 0.0 | 0.00 | 0.00 | 0.00 | 100 | 1034.5 | |
| 20260503005017 | 13 | 0.0 | 0.0 | 0.00 | 0.00 | 0.00 | 100 | 1034.7 | |
| 20260503004017 | 13 | 0.0 | 0.0 | 0.00 | 0.00 | 0.00 | 100 | 1034.8 | |
| 20260503003017 | 13 | 0.0 | 0.0 | 0.00 | 0.00 | 0.00 | 100 | 1035.0 | |
| 20260503002017 | 14 | 0.0 | 0.0 | 0.00 | 0.00 | 0.00 | 100 | 1035.1 | |
| 20260503001017 | 14 | 0.0 | 0.0 | 0.00 | 0.00 | 0.00 | 100 | 1035.3 | |
| 20260503000017 | 14 | 0.0 | 0.0 | 0.00 | 0.00 | 0.00 | 100 | 1035.5 | |
| 20260502235117 | 14 | 0.0 | 0.0 | 0.00 | 0.00 | 0.00 | 100 | 1035.5 | |
| 20260502234017 | 14 | 0.0 | 0.0 | 0.00 | 0.00 | 0.00 | 100 | 1035.6 | |
| 20260502233057 | 14 | 0.0 | 0.0 | 0.00 | 0.00 | 0.00 | 100 | 1035.7 |